User: anonymous   Login
Location: ??????????
(54.7560°N, 39.1389°E)
Time: 18:37:46
(UTC+00:00)
Language:

Cosmos 1805 - Orbit

View from above orbital plane
View from above orbital plane
View from above satellite
View from above satellite

Ground track
Ground track

The orbit data is extracted from the following two-line orbital elements,

1 17191U 86097A   25200.65374024  .00009879  00000-0  25390-3 0  9994
2 17191  82.4650 336.4326 0001733 252.0433 108.0623 15.39132062111191
Epoch (UTC): 19 July 2025 15:41:23
Eccentricity: 0.0001733
inclination: 82.4650°
perigee height: 447 km
apogee height: 450 km
right ascension of ascending node: 336.4326°
argument of perigee: 252.0433°
revolutions per day: 15.39132062
mean anomaly at epoch: 108.0623°
orbit number at epoch: 11119

The dashed part of the orbit path shows where the satellite is in the earth's shadow,  

DLR